contact:dominique.lefevre@mio.osupytheas.fr, maurice.libes@osupytheas.fr, didier.mallarino@osupytheas.fr
Project:EMSO http://www.emso-fr.org/EMSO-France
Depth: 2436.0 m
Title:EMSO Ligure Ouest : Data MII capteur AQUADOPP
Date,Latitude,Longitude,X_East,Y_North,Z_Up,Amplitude_X,Amplitude_Y,Amplitude_Z,Batterie,SoundSpeed,Heading,Pitch,Roll,Pressure,TIS,Speed,Direction
, degrees North, degrees East, m.s-1, m.s-1,m.s-1, 1, 1, 1, Volt, m.s-1, degree, degree, degree, dbar, degree_C, m.s-1, degree
2022-12-25T00:04:03,42.805,6.029,0.012,-0.013,0.044,102.0,102.0,102.0,13.4,1505.2,323.7,-0.8,1.8,2471.179,13.28,0.017,137.3
2022-12-25T00:07:03,42.805,6.029,0.052,-0.013,0.062,101.0,102.0,101.0,13.4,1505.2,319.8,-0.8,1.8,2471.158,13.28,0.053,104.0
2022-12-25T00:10:03,42.805,6.029,0.021,-0.044,-0.026,102.0,101.0,101.0,13.3,1505.2,326.9,-0.8,1.8,2471.128,13.28,0.048,154.5
2022-12-25T00:13:03,42.805,6.029,0.017,-0.032,0.028,102.0,102.0,101.0,13.3,1505.2,334.8,-0.8,1.8,2471.131,13.28,0.036,152.0
2022-12-25T00:16:03,42.805,6.029,0.042,-0.036,-0.001,101.0,101.0,102.0,13.4,1505.2,324.7,-0.8,1.9,2471.147,13.28,0.055,130.6
2022-12-25T00:19:03,42.805,6.029,0.007,-0.02,-0.006,101.0,101.0,101.0,13.4,1505.2,328.7,-0.8,1.8,2471.144,13.28,0.021,160.7
2022-12-25T00:22:03,42.805,6.029,0.054,-0.034,0.039,101.0,102.0,101.0,13.4,1505.2,324.2,-0.8,1.8,2471.145,13.28,0.063,122.2
2022-12-25T00:25:03,42.805,6.029,0.017,-0.032,0.007,101.0,101.0,102.0,13.3,1505.2,321.2,-0.7,1.8,2471.106,13.29,0.036,152.0
2022-12-25T00:28:03,42.805,6.029,0.021,0.003,0.074,101.0,102.0,101.0,13.3,1505.2,327.9,-0.7,1.8,2471.118,13.29,0.021,81.9
2022-12-25T00:31:03,42.805,6.029,0.026,-0.039,-0.002,101.0,101.0,101.0,13.3,1505.2,316.0,-0.8,1.8,2471.12,13.29,0.046,146.3
2022-12-25T00:34:03,42.805,6.029,0.022,-0.046,-0.003,101.0,101.0,102.0,13.4,1505.2,320.9,-0.8,1.8,2471.12,13.29,0.05,154.4
2022-12-25T00:37:03,42.805,6.029,0.012,-0.031,0.019,101.0,102.0,102.0,13.3,1505.2,327.9,-0.8,1.8,2471.124,13.29,0.033,158.8
2022-12-25T00:40:03,42.805,6.029,0.012,-0.018,0.051,101.0,102.0,102.0,13.4,1505.2,329.6,-0.8,1.8,2471.099,13.29,0.021,146.3
2022-12-25T00:43:03,42.805,6.029,0.02,-0.021,0.056,101.0,101.0,101.0,13.4,1505.2,322.1,-0.8,1.8,2471.123,13.29,0.028,136.4
2022-12-25T00:46:03,42.805,6.029,0.052,-0.032,0.041,102.0,101.0,101.0,13.3,1505.2,333.4,-0.7,1.8,2471.095,13.29,0.061,121.6
2022-12-25T00:49:03,42.805,6.029,0.004,-0.037,-0.042,102.0,100.0,103.0,13.4,1505.2,327.0,-0.8,1.8,2471.161,13.29,0.037,173.8
2022-12-25T00:52:03,42.805,6.029,0.007,-0.013,0.023,101.0,101.0,102.0,13.4,1505.2,319.8,-0.8,1.8,2471.11,13.29,0.014,151.7
2022-12-25T00:55:03,42.805,6.029,0.003,-0.039,-0.015,101.0,102.0,102.0,13.3,1505.2,330.2,-0.8,1.8,2471.076,13.29,0.039,175.6
2022-12-25T00:58:03,42.805,6.029,0.005,-0.04,0.012,101.0,103.0,101.0,13.4,1505.2,326.7,-0.7,1.8,2471.14,13.29,0.04,172.9
2022-12-25T01:04:03,42.805,6.029,0.04,-0.026,0.033,104.0,105.0,103.0,13.3,1505.2,319.9,-0.8,1.8,2471.165,13.28,0.047,123.0
2022-12-25T01:07:03,42.805,6.029,0.01,-0.026,0.02,102.0,102.0,102.0,13.4,1505.2,321.3,-0.8,1.8,2471.138,13.28,0.027,159.0
2022-12-25T01:10:03,42.805,6.029,0.017,-0.038,0.015,102.0,103.0,102.0,13.4,1505.2,330.2,-0.8,1.8,2471.136,13.28,0.041,155.9
2022-12-25T01:13:03,42.805,6.029,0.012,-0.004,0.025,101.0,102.0,102.0,13.4,1505.2,330.9,-0.8,1.8,2471.143,13.28,0.012,108.4
2022-12-25T01:16:03,42.805,6.029,0.022,-0.039,0.011,101.0,102.0,101.0,13.3,1505.2,323.6,-0.8,1.8,2471.137,13.28,0.044,150.6
2022-12-25T01:19:03,42.805,6.029,0.017,-0.022,0.036,102.0,102.0,102.0,13.3,1505.2,321.2,-0.8,1.8,2471.105,13.28,0.027,142.3
2022-12-25T01:22:03,42.805,6.029,0.01,-0.028,-0.002,101.0,102.0,102.0,13.4,1505.2,324.0,-0.8,1.8,2471.127,13.28,0.029,160.4
2022-12-25T01:25:03,42.805,6.029,0.042,-0.03,0.019,101.0,101.0,102.0,13.4,1505.2,317.0,-0.7,1.8,2471.074,13.29,0.051,125.5
2022-12-25T01:28:03,42.805,6.029,0.029,-0.047,-0.001,102.0,101.0,102.0,13.4,1505.2,326.9,-0.8,1.8,2471.118,13.29,0.055,148.3
2022-12-25T01:31:03,42.805,6.029,0.016,-0.052,0.006,102.0,102.0,102.0,13.4,1505.2,337.2,-0.8,1.8,2471.096,13.28,0.054,162.9
2022-12-25T01:34:03,42.805,6.029,-0.002,-0.011,0.026,101.0,102.0,102.0,13.4,1505.2,330.3,-0.7,1.8,2471.115,13.29,0.011,190.3
2022-12-25T01:37:03,42.805,6.029,0.009,-0.058,0.003,102.0,101.0,102.0,13.4,1505.2,334.4,-0.8,1.8,2471.081,13.29,0.058,171.2
2022-12-25T01:40:03,42.805,6.029,0.0,-0.023,-0.019,101.0,102.0,102.0,13.4,1505.2,321.0,-0.8,1.8,2471.097,13.29,0.023,180.0
2022-12-25T01:43:03,42.805,6.029,0.008,-0.045,0.001,102.0,102.0,102.0,13.4,1505.2,335.7,-0.8,1.8,2471.093,13.29,0.045,169.9
2022-12-25T01:46:03,42.805,6.029,0.006,-0.029,0.041,102.0,101.0,101.0,13.4,1505.2,325.0,-0.7,1.8,2471.078,13.29,0.029,168.3
2022-12-25T01:49:03,42.805,6.029,0.012,-0.05,0.042,102.0,102.0,101.0,13.4,1505.2,335.4,-0.8,1.9,2471.09,13.29,0.051,166.5
2022-12-25T01:52:03,42.805,6.029,0.022,-0.037,0.024,100.0,102.0,102.0,13.4,1505.2,324.3,-0.8,1.8,2471.106,13.29,0.043,149.3
2022-12-25T01:55:03,42.805,6.029,0.013,-0.048,0.002,102.0,102.0,101.0,13.3,1505.2,324.8,-0.7,1.8,2471.083,13.29,0.049,164.8
2022-12-25T01:58:03,42.805,6.029,0.01,-0.032,0.02,101.0,101.0,102.0,13.3,1505.2,335.3,-0.8,1.8,2471.108,13.29,0.033,162.6
2022-12-25T02:04:03,42.805,6.029,0.027,-0.018,0.06,102.0,101.0,102.0,13.4,1505.2,322.8,-0.8,1.8,2471.152,13.28,0.032,123.7
2022-12-25T02:07:03,42.805,6.029,0.02,-0.047,0.0,101.0,100.0,102.0,13.4,1505.2,337.8,-0.8,1.8,2471.083,13.28,0.051,157.0
2022-12-25T02:10:03,42.805,6.029,0.015,-0.015,0.04,102.0,103.0,101.0,13.3,1505.2,324.8,-0.8,1.8,2471.125,13.28,0.021,135.0
2022-12-25T02:13:03,42.805,6.029,0.009,-0.026,0.026,102.0,103.0,102.0,13.3,1505.2,338.3,-0.7,1.8,2471.112,13.28,0.027,160.9
2022-12-25T02:16:03,42.805,6.029,0.01,-0.037,0.017,101.0,102.0,101.0,13.3,1505.2,329.1,-0.7,1.8,2471.107,13.28,0.038,164.9
2022-12-25T02:19:03,42.805,6.029,0.025,-0.03,0.015,102.0,102.0,101.0,13.4,1505.2,322.9,-0.8,1.8,2471.1,13.28,0.039,140.2
2022-12-25T02:22:03,42.805,6.029,0.04,-0.018,0.044,102.0,102.0,102.0,13.3,1505.2,319.7,-0.8,1.8,2471.102,13.29,0.043,114.2
2022-12-25T02:25:03,42.805,6.029,0.028,-0.049,-0.015,101.0,102.0,102.0,13.4,1505.2,326.3,-0.7,1.8,2471.1,13.29,0.056,150.3
2022-12-25T02:28:03,42.805,6.029,0.006,-0.021,0.0,102.0,101.0,101.0,13.4,1505.2,326.5,-0.8,1.8,2471.111,13.29,0.021,164.1
2022-12-25T02:31:03,42.805,6.029,0.03,-0.061,-0.014,101.0,101.0,102.0,13.3,1505.2,330.0,-0.8,1.8,2471.067,13.29,0.067,153.8
2022-12-25T02:34:03,42.805,6.029,0.028,-0.035,0.035,101.0,101.0,102.0,13.4,1505.2,328.7,-0.8,1.8,2471.071,13.29,0.044,141.3
2022-12-25T02:37:03,42.805,6.029,0.017,-0.025,0.031,101.0,101.0,103.0,13.4,1505.2,319.4,-0.8,1.8,2471.066,13.29,0.03,145.8
2022-12-25T02:40:03,42.805,6.029,0.001,0.0,0.055,101.0,102.0,101.0,13.4,1505.2,323.7,-0.8,1.8,2471.101,13.29,0.001,90.0
2022-12-25T02:43:03,42.805,6.029,-0.002,-0.019,0.002,102.0,101.0,102.0,13.4,1505.2,332.0,-0.8,1.8,2471.079,13.29,0.019,186.0
2022-12-25T02:46:03,42.805,6.029,0.018,-0.02,0.005,102.0,101.0,102.0,13.3,1505.2,326.3,-0.8,1.8,2471.137,13.29,0.026,138.0
2022-12-25T02:49:03,42.805,6.029,-0.004,-0.032,0.028,101.0,101.0,101.0,13.4,1505.2,332.2,-0.7,1.8,2471.031,13.29,0.032,187.1
2022-12-25T02:52:03,42.805,6.029,0.032,-0.036,0.006,101.0,106.0,102.0,13.4,1505.2,327.4,-0.7,1.8,2471.057,13.29,0.048,138.4
2022-12-25T02:55:03,42.805,6.029,0.028,-0.052,-0.019,101.0,102.0,102.0,13.3,1505.2,322.2,-0.8,1.8,2471.096,13.29,0.059,151.7
2022-12-25T02:58:03,42.805,6.029,0.035,-0.023,0.02,100.0,103.0,101.0,13.4,1505.2,324.0,-0.8,1.8,2471.138,13.29,0.041,123.3
2022-12-25T03:04:03,42.805,6.029,-0.013,-0.02,-0.002,101.0,101.0,102.0,13.4,1505.2,334.4,-0.8,1.8,2471.149,13.28,0.023,213.0
2022-12-25T03:07:03,42.805,6.029,0.023,-0.031,0.027,101.0,101.0,102.0,13.4,1505.2,333.0,-0.8,1.8,2471.103,13.28,0.038,143.4
2022-12-25T03:10:03,42.805,6.029,0.023,-0.028,0.02,100.0,101.0,102.0,13.3,1505.2,322.1,-0.8,1.8,2471.098,13.28,0.036,140.6
2022-12-25T03:13:03,42.805,6.029,0.005,-0.042,-0.012,101.0,102.0,102.0,13.4,1505.2,331.0,-0.8,1.8,2471.093,13.28,0.042,173.2
2022-12-25T03:16:03,42.805,6.029,-0.006,-0.025,0.018,100.0,102.0,102.0,13.4,1505.2,326.3,-0.8,1.8,2471.088,13.28,0.025,193.5
2022-12-25T03:19:03,42.805,6.029,0.031,-0.04,0.033,102.0,102.0,102.0,13.4,1505.2,329.1,-0.7,1.8,2471.094,13.28,0.05,142.2
2022-12-25T03:22:03,42.805,6.029,-0.005,-0.025,0.002,102.0,101.0,102.0,13.3,1505.2,323.1,-0.8,1.8,2471.123,13.29,0.025,191.3
2022-12-25T03:25:03,42.805,6.029,0.029,-0.034,0.037,102.0,102.0,102.0,13.3,1505.2,332.7,-0.7,1.8,2471.158,13.29,0.044,139.5
2022-12-25T03:28:03,42.805,6.029,0.008,-0.042,0.009,101.0,102.0,102.0,13.3,1505.2,326.3,-0.8,1.8,2471.141,13.29,0.042,169.2
2022-12-25T03:31:03,42.805,6.029,0.004,-0.031,0.02,102.0,101.0,102.0,13.4,1505.2,318.8,-0.7,1.8,2471.117,13.29,0.031,172.7
2022-12-25T03:34:03,42.805,6.029,0.014,-0.037,0.021,101.0,102.0,102.0,13.4,1505.2,329.4,-0.7,1.8,2471.133,13.29,0.039,159.3
2022-12-25T03:37:03,42.805,6.029,0.032,-0.025,0.042,101.0,102.0,102.0,13.3,1505.2,320.3,-0.8,1.8,2471.106,13.29,0.04,128.0
2022-12-25T03:40:03,42.805,6.029,0.031,-0.05,0.0,101.0,102.0,102.0,13.3,1505.2,328.6,-0.8,1.8,2471.133,13.29,0.058,148.2
2022-12-25T03:43:03,42.805,6.029,0.021,-0.05,0.003,101.0,102.0,102.0,13.4,1505.2,329.1,-0.8,1.8,2471.129,13.29,0.054,157.2
2022-12-25T03:46:03,42.805,6.029,0.014,-0.034,0.013,101.0,103.0,103.0,13.4,1505.2,320.7,-0.8,1.8,2471.127,13.29,0.036,157.6
2022-12-25T03:49:03,42.805,6.029,0.0,-0.029,0.001,102.0,101.0,102.0,13.4,1505.2,334.9,-0.8,1.8,2471.107,13.29,0.028,180.0
2022-12-25T03:52:03,42.805,6.029,0.034,-0.049,0.0,100.0,101.0,103.0,13.4,1505.2,331.9,-0.8,1.8,2471.09,13.29,0.059,145.2
2022-12-25T03:55:03,42.805,6.029,-0.009,-0.03,0.002,102.0,102.0,103.0,13.4,1505.2,324.8,-0.8,1.8,2471.116,13.29,0.031,196.7
2022-12-25T03:58:03,42.805,6.029,0.004,-0.038,-0.001,101.0,101.0,102.0,13.4,1505.2,323.9,-0.7,1.8,2471.108,13.29,0.038,174.0
2022-12-25T04:04:03,42.805,6.029,0.017,-0.02,0.01,101.0,103.0,102.0,13.3,1505.2,327.9,-0.7,1.8,2471.175,13.28,0.026,139.6
2022-12-25T04:07:03,42.805,6.029,0.032,-0.052,0.011,101.0,101.0,101.0,13.4,1505.2,322.7,-0.8,1.8,2471.191,13.28,0.061,148.4
2022-12-25T04:10:03,42.805,6.029,0.021,-0.027,0.04,100.0,101.0,102.0,13.4,1505.2,335.6,-0.8,1.9,2471.137,13.28,0.034,142.1
2022-12-25T04:13:03,42.805,6.029,0.042,-0.026,0.035,101.0,101.0,101.0,13.4,1505.2,319.7,-0.8,1.8,2471.166,13.28,0.049,121.8
2022-12-25T04:16:03,42.805,6.029,0.012,-0.012,0.014,102.0,101.0,101.0,13.3,1505.2,323.1,-0.7,1.8,2471.158,13.28,0.016,135.0
2022-12-25T04:19:03,42.805,6.029,0.013,-0.028,0.019,102.0,102.0,101.0,13.4,1505.2,329.0,-0.8,1.8,2471.175,13.28,0.03,155.1
2022-12-25T04:22:03,42.805,6.029,0.017,-0.011,0.033,101.0,101.0,102.0,13.4,1505.2,329.2,-0.8,1.8,2471.163,13.29,0.02,122.9
2022-12-25T04:25:03,42.805,6.029,-0.004,-0.019,0.03,101.0,101.0,102.0,13.4,1505.2,333.0,-0.8,1.8,2471.164,13.29,0.019,191.9
2022-12-25T04:28:03,42.805,6.029,0.019,-0.035,-0.015,101.0,101.0,102.0,13.4,1505.2,329.5,-0.8,1.8,2471.161,13.29,0.039,151.5
2022-12-25T04:31:03,42.805,6.029,0.005,-0.047,-0.01,101.0,102.0,101.0,13.4,1505.2,326.7,-0.7,1.8,2471.191,13.29,0.047,173.9
2022-12-25T04:34:03,42.805,6.029,-0.001,-0.02,0.014,101.0,102.0,102.0,13.4,1505.2,335.9,-0.8,1.9,2471.154,13.29,0.02,182.9
2022-12-25T04:37:03,42.805,6.029,-0.004,-0.023,0.018,102.0,101.0,103.0,13.4,1505.2,330.0,-0.8,1.8,2471.173,13.29,0.023,189.9
2022-12-25T04:40:03,42.805,6.029,0.007,-0.032,0.002,101.0,102.0,101.0,13.4,1505.2,328.1,-0.8,1.8,2471.163,13.29,0.032,167.7
2022-12-25T04:43:03,42.805,6.029,0.009,-0.014,0.044,102.0,102.0,101.0,13.4,1505.2,327.0,-0.8,1.8,2471.175,13.29,0.016,147.3
2022-12-25T04:46:03,42.805,6.029,0.026,-0.045,-0.031,102.0,100.0,102.0,13.4,1505.2,321.8,-0.7,1.8,2471.168,13.29,0.051,150.0
2022-12-25T04:49:03,42.805,6.029,0.028,-0.018,0.036,100.0,103.0,102.0,13.4,1505.2,320.3,-0.8,1.8,2471.177,13.29,0.033,122.7
2022-12-25T04:52:03,42.805,6.029,-0.007,-0.031,-0.011,101.0,103.0,101.0,13.3,1505.2,329.0,-0.8,1.8,2471.174,13.29,0.031,192.7
2022-12-25T04:55:03,42.805,6.029,0.02,-0.038,0.023,101.0,101.0,102.0,13.4,1505.2,323.9,-0.7,1.8,2471.155,13.29,0.042,152.2
2022-12-25T04:58:03,42.805,6.029,-0.006,-0.03,-0.004,101.0,101.0,102.0,13.3,1505.2,336.5,-0.8,1.8,2471.189,13.29,0.03,191.3
2022-12-25T05:04:03,42.805,6.029,0.011,-0.023,0.025,102.0,101.0,102.0,13.4,1505.2,330.5,-0.7,1.8,2471.254,13.28,0.025,154.4
2022-12-25T05:07:03,42.805,6.029,0.025,-0.044,0.037,101.0,100.0,101.0,13.4,1505.2,327.2,-0.8,1.8,2471.255,13.28,0.05,150.4
2022-12-25T05:10:03,42.805,6.029,-0.022,-0.019,0.034,101.0,101.0,102.0,13.4,1505.2,332.7,-0.8,1.9,2471.258,13.28,0.029,229.2
2022-12-25T05:13:03,42.805,6.029,0.013,-0.04,0.009,100.0,101.0,102.0,13.4,1505.2,324.0,-0.8,1.8,2471.258,13.28,0.042,162.0
2022-12-25T05:16:03,42.805,6.029,0.007,-0.035,0.017,102.0,101.0,101.0,13.4,1505.2,335.0,-0.8,1.8,2471.225,13.28,0.035,168.7
2022-12-25T05:19:03,42.805,6.029,0.006,-0.025,0.037,101.0,101.0,102.0,13.4,1505.2,320.2,-0.8,1.8,2471.246,13.29,0.025,166.5
2022-12-25T05:22:03,42.805,6.029,-0.014,-0.02,0.034,102.0,101.0,101.0,13.4,1505.2,328.3,-0.7,1.8,2471.172,13.29,0.024,215.0
2022-12-25T05:25:03,42.805,6.029,0.017,-0.024,0.016,101.0,101.0,102.0,13.3,1505.2,323.1,-0.7,1.9,2471.225,13.29,0.029,144.7
2022-12-25T05:28:03,42.805,6.029,0.014,-0.02,0.009,101.0,101.0,102.0,13.3,1505.2,325.7,-0.8,1.8,2471.22,13.29,0.024,145.0
2022-12-25T05:31:03,42.805,6.029,0.027,-0.039,0.015,100.0,101.0,102.0,13.4,1505.2,332.1,-0.8,1.8,2471.207,13.29,0.047,145.3
2022-12-25T05:34:03,42.805,6.029,-0.004,-0.004,0.046,101.0,103.0,100.0,13.3,1505.2,322.8,-0.8,1.8,2471.305,13.29,0.005,225.0
2022-12-25T05:37:03,42.805,6.029,-0.017,-0.025,0.009,102.0,102.0,100.0,13.3,1505.2,336.8,-0.8,1.8,2471.236,13.29,0.03,214.2
2022-12-25T05:40:03,42.805,6.029,-0.012,-0.004,0.035,100.0,102.0,101.0,13.4,1505.2,316.5,-0.8,1.8,2471.294,13.29,0.012,251.6
2022-12-25T05:43:03,42.805,6.029,0.018,-0.039,-0.004,100.0,101.0,101.0,13.4,1505.2,323.4,-0.8,1.8,2471.275,13.29,0.042,155.2
2022-12-25T05:46:03,42.805,6.029,0.005,-0.036,-0.014,101.0,101.0,101.0,13.4,1505.2,324.3,-0.8,1.8,2471.274,13.29,0.036,172.1
2022-12-25T05:49:03,42.805,6.029,-0.001,-0.041,0.004,101.0,100.0,102.0,13.3,1505.2,331.2,-0.8,1.8,2471.247,13.29,0.041,181.4
2022-12-25T05:52:03,42.805,6.029,-0.001,-0.042,-0.003,102.0,100.0,101.0,13.3,1505.2,323.7,-0.7,1.8,2471.254,13.29,0.042,181.4
2022-12-25T05:55:03,42.805,6.029,0.013,-0.023,0.025,100.0,103.0,101.0,13.4,1505.2,317.7,-0.8,1.8,2471.296,13.29,0.026,150.5
2022-12-25T05:58:03,42.805,6.029,0.02,-0.036,-0.013,101.0,101.0,101.0,13.4,1505.2,316.5,-0.8,1.8,2471.243,13.29,0.041,150.9
2022-12-25T06:04:03,42.805,6.029,-0.001,-0.018,-0.007,101.0,101.0,102.0,13.3,1505.2,329.7,-0.8,1.8,2471.33,13.28,0.018,183.2
2022-12-25T06:07:03,42.805,6.029,0.012,-0.026,0.01,102.0,101.0,102.0,13.4,1505.2,330.0,-0.8,1.8,2471.329,13.28,0.028,155.2
2022-12-25T06:10:03,42.805,6.029,0.017,-0.017,0.03,103.0,99.0,102.0,13.3,1505.2,317.4,-0.7,1.8,2471.309,13.28,0.024,135.0
2022-12-25T06:13:03,42.805,6.029,0.004,-0.02,0.025,103.0,100.0,101.0,13.4,1505.2,335.4,-0.8,1.8,2471.316,13.28,0.02,168.7
2022-12-25T06:16:03,42.805,6.029,0.004,-0.025,0.016,102.0,101.0,101.0,13.4,1505.2,325.4,-0.8,1.8,2471.298,13.29,0.025,170.9
2022-12-25T06:19:03,42.805,6.029,0.032,-0.016,0.059,101.0,101.0,101.0,13.3,1505.2,317.1,-0.8,1.8,2471.336,13.29,0.035,116.6
2022-12-25T06:22:03,42.805,6.029,0.033,-0.022,0.062,101.0,103.0,100.0,13.4,1505.2,335.6,-0.8,1.8,2471.331,13.29,0.039,123.7
2022-12-25T06:25:03,42.805,6.029,0.007,-0.028,0.006,100.0,102.0,102.0,13.3,1505.2,331.5,-0.8,1.9,2471.342,13.29,0.028,166.0
2022-12-25T06:28:03,42.805,6.029,0.048,-0.059,0.023,100.0,102.0,102.0,13.3,1505.2,333.4,-0.8,1.8,2471.341,13.29,0.076,140.9
2022-12-25T06:31:03,42.805,6.029,0.005,-0.014,0.038,102.0,101.0,101.0,13.4,1505.2,325.1,-0.7,1.8,2471.324,13.29,0.014,160.4
2022-12-25T06:34:03,42.805,6.029,0.037,-0.021,0.038,101.0,102.0,101.0,13.4,1505.2,319.7,-0.8,1.8,2471.355,13.29,0.042,119.6
2022-12-25T06:37:03,42.805,6.029,-0.006,-0.016,0.032,101.0,101.0,101.0,13.3,1505.2,327.6,-0.7,1.8,2471.325,13.29,0.017,200.6
2022-12-25T06:40:03,42.805,6.029,0.034,-0.024,0.053,101.0,103.0,101.0,13.4,1505.2,331.1,-0.7,1.8,2471.317,13.29,0.041,125.2
2022-12-25T06:43:03,42.805,6.029,0.016,0.007,0.039,101.0,101.0,101.0,13.3,1505.2,321.8,-0.7,1.8,2471.316,13.29,0.017,66.4
2022-12-25T06:46:03,42.805,6.029,0.0,-0.018,0.034,102.0,101.0,101.0,13.4,1505.2,328.7,-0.7,1.8,2471.348,13.29,0.018,180.0
2022-12-25T06:49:03,42.805,6.029,-0.003,-0.022,0.017,103.0,101.0,100.0,13.4,1505.2,326.7,-0.8,1.8,2471.352,13.29,0.022,187.8
2022-12-25T06:52:03,42.805,6.029,0.01,-0.022,0.026,103.0,101.0,102.0,13.4,1505.2,318.6,-0.7,1.8,2471.325,13.29,0.024,155.6
2022-12-25T06:55:03,42.805,6.029,-0.006,-0.022,0.002,100.0,100.0,101.0,13.3,1505.2,327.9,-0.8,1.8,2471.345,13.29,0.022,195.3
2022-12-25T06:58:03,42.805,6.029,0.029,-0.04,0.01,101.0,101.0,101.0,13.4,1505.2,318.8,-0.8,1.8,2471.333,13.29,0.049,144.1
2022-12-25T07:04:03,42.805,6.029,0.008,-0.017,0.007,102.0,101.0,102.0,13.4,1505.2,330.9,-0.8,1.8,2471.428,13.28,0.018,154.8
2022-12-25T07:07:03,42.805,6.029,0.003,-0.031,-0.002,102.0,102.0,101.0,13.4,1505.2,320.9,-0.8,1.8,2471.374,13.28,0.031,174.5
2022-12-25T07:10:03,42.805,6.029,0.021,-0.03,0.025,101.0,102.0,101.0,13.3,1505.2,331.3,-0.8,1.8,2471.376,13.28,0.036,145.0
2022-12-25T07:13:03,42.805,6.029,0.003,-0.02,0.027,101.0,101.0,101.0,13.4,1505.2,321.8,-0.8,1.8,2471.387,13.28,0.02,171.5
2022-12-25T07:16:03,42.805,6.029,-0.002,-0.002,0.021,101.0,102.0,102.0,13.3,1505.2,330.6,-0.7,1.8,2471.375,13.29,0.002,225.0
2022-12-25T07:19:03,42.805,6.029,-0.001,-0.02,0.027,101.0,102.0,102.0,13.3,1505.2,316.9,-0.7,1.8,2471.407,13.29,0.02,182.9
2022-12-25T07:22:03,42.805,6.029,0.034,-0.027,0.024,101.0,101.0,101.0,13.4,1505.2,322.9,-0.8,1.8,2471.347,13.29,0.043,128.5
2022-12-25T07:25:03,42.805,6.029,0.0,-0.02,0.021,101.0,101.0,101.0,13.4,1505.2,319.0,-0.8,1.8,2471.365,13.29,0.02,180.0
2022-12-25T07:28:03,42.805,6.029,0.013,-0.011,0.028,101.0,102.0,101.0,13.4,1505.2,320.7,-0.8,1.8,2471.373,13.29,0.017,130.2
2022-12-25T07:31:03,42.805,6.029,0.01,-0.026,0.026,100.0,102.0,102.0,13.3,1505.2,322.3,-0.8,1.8,2471.395,13.29,0.027,159.0
2022-12-25T07:34:03,42.805,6.029,0.017,-0.024,0.033,101.0,101.0,102.0,13.4,1505.2,324.7,-0.7,1.8,2471.357,13.29,0.029,144.7
2022-12-25T07:37:03,42.805,6.029,0.026,-0.037,0.01,100.0,102.0,102.0,13.4,1505.2,329.9,-0.8,1.8,2471.33,13.29,0.045,144.9
2022-12-25T07:40:03,42.805,6.029,0.006,-0.013,0.016,102.0,102.0,101.0,13.3,1505.2,320.4,-0.7,1.8,2471.423,13.29,0.014,155.2
2022-12-25T07:43:03,42.805,6.029,-0.007,0.0,0.051,101.0,101.0,101.0,13.4,1505.2,328.6,-0.7,1.8,2471.402,13.29,0.007,270.0
2022-12-25T07:46:03,42.805,6.029,-0.008,-0.018,-0.003,101.0,102.0,102.0,13.3,1505.2,316.9,-0.7,1.8,2471.358,13.29,0.019,204.0
2022-12-25T07:49:03,42.805,6.029,0.016,-0.012,0.021,102.0,102.0,101.0,13.4,1505.2,317.4,-0.8,1.8,2471.394,13.29,0.02,126.9
2022-12-25T07:52:03,42.805,6.029,-0.005,-0.019,0.016,101.0,102.0,102.0,13.3,1505.2,329.3,-0.8,1.8,2471.428,13.29,0.019,194.7
2022-12-25T07:55:03,42.805,6.029,0.001,-0.008,0.024,101.0,102.0,101.0,13.4,1505.2,322.1,-0.8,1.8,2471.401,13.29,0.008,172.9
2022-12-25T07:58:03,42.805,6.029,0.01,-0.033,0.0,101.0,102.0,101.0,13.4,1505.2,321.2,-0.8,1.8,2471.404,13.29,0.034,163.1
2022-12-25T08:04:03,42.805,6.029,0.021,-0.014,0.031,101.0,102.0,101.0,13.4,1505.2,325.8,-0.8,1.8,2471.448,13.28,0.025,123.7
2022-12-25T08:07:03,42.805,6.029,0.006,-0.035,-0.011,101.0,102.0,101.0,13.3,1505.2,326.0,-0.7,1.8,2471.44,13.28,0.035,170.3
2022-12-25T08:10:03,42.805,6.029,-0.011,-0.021,0.029,101.0,101.0,101.0,13.3,1505.2,321.3,-0.8,1.8,2471.459,13.28,0.023,207.6
2022-12-25T08:13:03,42.805,6.029,0.018,0.008,0.045,102.0,102.0,101.0,13.4,1505.2,325.6,-0.8,1.8,2471.415,13.28,0.019,66.0
2022-12-25T08:16:03,42.805,6.029,0.011,-0.008,0.058,101.0,102.0,101.0,13.3,1505.2,321.5,-0.8,1.8,2471.446,13.29,0.013,126.0
2022-12-25T08:19:03,42.805,6.029,0.008,-0.041,0.033,102.0,100.0,101.0,13.4,1505.2,333.8,-0.8,1.8,2471.416,13.29,0.041,169.0
2022-12-25T08:22:03,42.805,6.029,-0.025,-0.025,-0.001,102.0,102.0,101.0,13.3,1505.2,329.4,-0.8,1.8,2471.435,13.29,0.035,225.0
2022-12-25T08:25:03,42.805,6.029,0.016,-0.033,-0.013,101.0,102.0,102.0,13.3,1505.2,330.7,-0.8,1.8,2471.392,13.29,0.036,154.1
2022-12-25T08:28:03,42.805,6.029,0.009,-0.015,0.049,101.0,102.0,102.0,13.3,1505.2,336.6,-0.7,1.8,2471.386,13.29,0.017,149.0
2022-12-25T08:31:03,42.805,6.029,-0.011,-0.028,-0.026,101.0,101.0,101.0,13.4,1505.2,329.0,-0.7,1.8,2471.451,13.29,0.03,201.4
2022-12-25T08:34:03,42.805,6.029,0.001,-0.025,0.018,101.0,102.0,102.0,13.4,1505.2,325.6,-0.8,1.8,2471.432,13.29,0.025,177.7
2022-12-25T08:37:03,42.805,6.029,0.002,-0.001,0.047,101.0,102.0,102.0,13.4,1505.2,330.8,-0.8,1.8,2471.408,13.29,0.002,116.6
2022-12-25T08:40:03,42.805,6.029,0.027,-0.028,0.003,101.0,101.0,101.0,13.4,1505.2,317.1,-0.7,1.8,2471.447,13.29,0.038,136.0
2022-12-25T08:43:03,42.805,6.029,0.006,-0.017,0.036,102.0,101.0,101.0,13.4,1505.2,320.4,-0.8,1.8,2471.41,13.29,0.018,160.6
2022-12-25T08:46:03,42.805,6.029,0.007,-0.033,0.012,101.0,102.0,101.0,13.4,1505.2,323.2,-0.8,1.8,2471.414,13.29,0.033,168.0
2022-12-25T08:49:03,42.805,6.029,-0.013,-0.016,0.003,102.0,101.0,102.0,13.4,1505.2,322.6,-0.8,1.8,2471.422,13.29,0.02,219.1
2022-12-25T08:52:03,42.805,6.029,0.019,-0.007,0.045,102.0,101.0,102.0,13.3,1505.2,317.4,-0.8,1.8,2471.459,13.29,0.02,110.2
2022-12-25T08:55:03,42.805,6.029,0.016,-0.012,0.008,101.0,102.0,101.0,13.4,1505.2,323.2,-0.8,1.8,2471.409,13.29,0.02,126.9
2022-12-25T08:58:03,42.805,6.029,0.004,-0.017,0.01,101.0,102.0,101.0,13.4,1505.2,331.6,-0.8,1.8,2471.461,13.29,0.017,166.8
2022-12-25T09:04:03,42.805,6.029,-0.006,-0.003,0.04,100.0,102.0,102.0,13.4,1505.2,331.2,-0.8,1.8,2471.476,13.28,0.006,243.4
2022-12-25T09:07:03,42.805,6.029,0.028,-0.045,-0.029,101.0,102.0,101.0,13.3,1505.2,320.2,-0.8,1.8,2471.473,13.28,0.053,148.1
2022-12-25T09:10:03,42.805,6.029,-0.009,-0.008,0.044,102.0,102.0,102.0,13.4,1505.2,327.9,-0.8,1.8,2471.458,13.28,0.012,228.4
2022-12-25T09:13:03,42.805,6.029,0.009,-0.008,0.031,102.0,102.0,102.0,13.4,1505.2,318.4,-0.8,1.8,2471.416,13.29,0.012,131.6
2022-12-25T09:16:03,42.805,6.029,-0.004,-0.023,0.025,102.0,102.0,101.0,13.4,1505.2,324.2,-0.8,1.8,2471.454,13.29,0.023,189.9
2022-12-25T09:19:03,42.805,6.029,-0.013,-0.013,0.02,102.0,102.0,102.0,13.4,1505.2,321.2,-0.8,1.8,2471.439,13.29,0.018,225.0
2022-12-25T09:22:03,42.805,6.029,0.024,-0.025,0.002,101.0,102.0,101.0,13.3,1505.2,325.8,-0.7,1.8,2471.415,13.29,0.034,136.2
2022-12-25T09:25:03,42.805,6.029,0.002,-0.036,-0.003,101.0,101.0,102.0,13.3,1505.2,321.8,-0.8,1.8,2471.432,13.29,0.036,176.8
2022-12-25T09:28:03,42.805,6.029,0.019,-0.017,0.023,101.0,102.0,101.0,13.4,1505.2,318.1,-0.8,1.9,2471.438,13.29,0.025,131.8
2022-12-25T09:31:03,42.805,6.029,0.019,-0.026,0.016,101.0,102.0,102.0,13.4,1505.2,323.2,-0.7,1.8,2471.413,13.29,0.032,143.8
2022-12-25T09:34:03,42.805,6.029,0.0,-0.021,0.03,102.0,101.0,100.0,13.4,1505.2,325.1,-0.8,1.8,2471.419,13.29,0.021,180.0
2022-12-25T09:37:03,42.805,6.029,0.0,-0.011,0.016,101.0,103.0,101.0,13.4,1505.2,326.5,-0.8,1.8,2471.47,13.29,0.011,180.0
2022-12-25T09:40:03,42.805,6.029,-0.003,-0.016,0.002,101.0,104.0,101.0,13.3,1505.2,326.9,-0.8,1.8,2471.439,13.29,0.016,190.6
2022-12-25T09:43:03,42.805,6.029,0.007,-0.014,0.042,101.0,102.0,101.0,13.4,1505.2,325.1,-0.7,1.8,2471.405,13.29,0.015,153.4
2022-12-25T09:46:03,42.805,6.029,0.017,-0.019,0.035,102.0,101.0,101.0,13.3,1505.2,321.6,-0.8,1.8,2471.416,13.29,0.025,138.2
2022-12-25T09:49:03,42.805,6.029,0.02,-0.035,0.019,102.0,102.0,100.0,13.4,1505.2,330.7,-0.8,1.8,2471.396,13.29,0.04,150.3
2022-12-25T09:52:03,42.805,6.029,0.002,-0.016,0.037,102.0,102.0,101.0,13.3,1505.2,325.1,-0.7,1.8,2471.416,13.29,0.016,172.9
2022-12-25T09:55:03,42.805,6.029,0.024,-0.025,0.032,102.0,102.0,101.0,13.4,1505.2,324.6,-0.7,1.8,2471.405,13.29,0.034,136.2
2022-12-25T09:58:03,42.805,6.029,0.012,-0.014,0.03,101.0,102.0,101.0,13.4,1505.2,319.8,-0.7,1.9,2471.417,13.29,0.018,139.4